Regional Weather Roundup
Issued by NWS Binghamton, NY

Home | Current Version | Previous Version | Text Only | Print | Product List | Glossary On
Versions: 1 2 3 4 5 6 7 8 9 10 11 12 13 14 15 16 17 18 19 20 21 22 23 24 25 26 27 28 29 30 31 32 33 34 35 36 37 38 39 40 41 42 43 44 45 46 47 48 49 50
000
ASUS41 KBGM 271810
RWRBGM
RWRBGM
BINGHAMTON REGIONAL WEATHER ROUNDUP
NATIONAL WEATHER SERVICE BINGHAMTON NY
100 PM EST THU NOV 27 2014

Note: "fair" indicates few or no clouds below 12,000 feet with no
significant weather and/or obstructions to visibility.

* = Station(s) that does not report precipitation, such as rain,
snow, etc, also no thunder or fog.

!NYZ009-015>018-022>025-036-037-044>046-055>057-062-271900
...CENTRAL NEW YORK...

CITY           SKY/WX    TMP DP  RH WIND       PRES   REMARKS
BINGHAMTON     FLURRIES  27  24  89 W7        29.94S WCI  19
CORTLAND       LGT SNOW  30  28  93 W7        29.99S WCI  23
DANSVILLE      PTSUNNY   33  22  63 N5        30.03F WCI  29
ELMIRA         PTSUNNY   33  22  63 NW5       30.01R WCI  29
ITHACA         LGT SNOW  28  25  89 NW8       30.00F FOG     WCI  20
HAMILTON       CLOUDY    30  27  86 NW5       29.97F WCI  25
MONTICELLO     CLOUDY    28  28 100 NW9       29.94F WCI  20
NORWICH        LGT SNOW  28  25  86 CALM      29.97F
PENN YAN       PTSUNNY   31  22  69 NW10      30.01S WCI  22
ROME           LGT SNOW  29  27  92 N5        30.02S FOG     WCI  24
SIDNEY         LGT SNOW  32  30  93 CALM      29.97F
SYRACUSE       LGT SNOW  30  25  81 W6        30.02F WCI  24
$$

!PAZ038>040-043-044-047-048-072-271900
...NORTHEAST PENNSYLVANIA...

CITY           SKY/WX    TMP DP  RH WIND       PRES   REMARKS
HAZLETON       CLOUDY    32  28  86 NW8       29.97S WCI  25
SCRANTON       CLOUDY    33  26  75 W14       29.98F WCI  23
TOWANDA*       PTSUNNY   34  23  64 W7        30.02R WCI  28
$$
&&
KEY
WCI = WIND CHILL INDEX
VSB = VISIBILITY
HX  = HEAT INDEX
$$


USA.gov is the U.S. government's official web portal to all federal, state and local government web resources and services.